Home   Weather   Jan Mayen   Past weeks

Flag for Norway Past Weather in Jan Mayen, Jan Mayen, Norway — Yesterday and Last 2 Weeks

Now
42 °F

Quite cool.


Feels Like: 42 °F
Forecast: 39 / 43 °F
Wind: 2 mph from North

Location: Jan Mayen

Current Time: Sep 28, 2016 at 10:42:24 AM

Latest Report: Sep 28, 2016 at 10:00 AM


Visibility: N/A

Pressure: 29.26 "Hg

Humidity: 92%

Dew Point: 40 °F

Location of Jan MayenLocation

Past Weather in Jan Mayen — Graph

°F

Jan Mayen Temperature Yesterday

Maximum temperature yesterday: 44 °F (at 2:00 AM)
Minimum temperature yesterday: 42 °F (at 11:00 PM)
Average temperature yesterday: 43 °F

High & Low Weather Summary for the Past Weeks

 TemperatureHumidityPressure
High50 °F (Sep 25, 2:00 PM)97% (Sep 16, 11:00 PM)29.96 "Hg (Sep 16, 11:00 PM)
Low39 °F (Sep 19, 7:00 AM)73% (Sep 14, 7:00 PM)29.03 "Hg (Sep 18, 2:00 AM)
Average44 °F91%29.59 "Hg
* Reported Sep 13 9:00 AM — Sep 28 9:00 AM, Jan Mayen, Weather by CustomWeather, © 2016

Note: Actual official high and low records may vary slightly from our data, if they occured in-between our weather recording intervals... More about our weather records

Advertising

Jan Mayen Weather History for the Previous 24 Hours

Scroll right to see more
 ConditionsComfort  
Time TempWeatherWind HumidityBarometerVisibility
9:00 AM
Wed, Sep 28
42 °FQuite cool.1 mph91%29.26 "HgN/A
8:00 AM42 °FLow clouds.3 mph90%29.26 "Hg6 mi
7:00 AM42 °FQuite cool.6 mph92%29.26 "HgN/A
6:00 AM41 °FQuite cool.6 mph92%29.26 "HgN/A
5:00 AM41 °FQuite cool.6 mph91%29.26 "HgN/A
4:00 AM41 °FQuite cool.6 mph91%29.26 "HgN/A
3:00 AM42 °FQuite cool.5 mph91%29.26 "HgN/A
2:00 AM42 °FLight rain. Low clouds.5 mph91%29.26 "Hg2 mi
1:00 AM42 °FQuite cool.1 mph92%29.29 "HgN/A
12:00 AM41 °FQuite cool.2 mph92%29.29 "HgN/A
11:00 PM
Tue, Sep 27
42 °FQuite cool.3 mph92%29.29 "HgN/A
10:00 PM42 °FQuite cool.3 mph92%29.26 "HgN/A
9:00 PM42 °FQuite cool.3 mph90%29.26 "HgN/A
8:00 PM42 °FQuite cool.2 mph92%29.26 "HgN/A
7:00 PM43 °FQuite cool.3 mph92%29.26 "HgN/A
6:00 PM43 °FQuite cool.3 mph93%29.26 "HgN/A
5:00 PM43 °FDrizzle. Low clouds.7 mph94%29.26 "Hg4 mi
4:00 PM43 °FQuite cool.7 mph93%29.26 "HgN/A
3:00 PM44 °FQuite cool.6 mph93%29.26 "HgN/A
2:00 PM44 °FDrizzle. Overcast.3 mph92%29.26 "Hg9 mi
1:00 PM44 °FQuite cool.8 mph93%29.26 "HgN/A
12:00 PM44 °FQuite cool.7 mph93%29.23 "HgN/A
11:00 AM44 °FQuite cool.7 mph91%29.23 "HgN/A
10:00 AM43 °FQuite cool.10 mph90%29.23 "HgN/A
Weather by CustomWeather, © 2016

See weather overviewHow to use our weather pages